period_start,C,m1,H,J0,J1,J2,J3,J4,J5,JA,JB,JC,JD,JJ,JK,JN,#
2013-07-14 00:00:54,-0.02,0.39,0.00,30.56,32.93,35.04,5.72,30.92,1013.21,2034.03,3251.99,3209.96,3476.75,349.53,314.74,32.41,0000 0000 0000 0000 000000
2013-07-14 00:01:54,0.01,0.39,0.00,30.55,32.93,35.06,5.88,31.00,1013.21,2034.05,3251.99,3209.97,3476.66,350.30,315.12,32.42,0000 0000 0000 0000 000000
2013-07-14 00:02:54,0.01,0.39,0.00,30.55,32.92,35.02,5.69,30.88,1013.21,2034.02,3251.99,3209.97,3476.65,350.01,314.88,32.42,0000 0000 0000 0000 000000
2013-07-14 00:03:54,-0.02,0.39,0.00,30.59,32.92,34.96,5.72,30.58,1013.22,2034.01,3251.99,3209.98,3476.71,350.13,314.59,32.43,0000 0000 0000 0000 000000
2013-07-14 00:04:54,0.00,0.39,0.00,30.61,32.93,34.96,5.78,30.92,1013.24,2034.00,3251.98,3209.98,3476.67,349.63,314.19,32.44,0000 0000 0000 0000 000000
2013-07-14 00:05:54,0.00,0.39,0.00,30.67,32.92,34.94,5.83,30.83,1013.22,2034.02,3251.99,3209.99,3476.67,350.33,315.03,32.44,0000 0000 0000 0000 000000
2013-07-14 00:06:55,0.01,0.39,0.00,30.65,32.93,34.93,5.87,30.83,1013.21,2034.01,3251.99,3209.97,3476.65,350.36,315.08,32.45,0000 0000 0000 0000 000000
2013-07-14 00:07:55,0.01,0.39,0.00,30.67,32.93,34.95,5.89,31.17,1013.22,2034.01,3251.99,3209.95,3476.43,351.09,315.71,32.45,0000 0000 0000 0000 000000
2013-07-14 00:08:55,0.02,0.39,0.00,30.65,32.93,34.98,5.68,30.92,1013.23,2034.01,3251.99,3209.94,3476.36,349.77,314.54,32.46,0000 0000 0000 0000 000000
2013-07-14 00:09:55,0.01,0.39,0.00,30.69,32.93,34.95,5.82,31.17,1013.25,2034.00,3251.96,3209.88,3476.25,350.63,315.28,32.46,0000 0000 0000 0000 000000
2013-07-14 00:10:55,0.03,0.39,0.00,30.69,32.93,34.95,5.74,31.00,1013.24,2034.01,3251.97,3209.88,3476.25,350.95,315.08,32.47,0000 0000 0000 0000 000000
2013-07-14 00:11:56,-0.00,0.39,0.00,30.70,32.93,34.94,5.70,31.04,1013.28,2034.00,3251.99,3209.91,3476.23,349.45,314.21,32.48,0000 0000 0000 0000 000000
2013-07-14 00:12:56,-0.01,0.39,0.00,30.74,32.93,35.00,5.65,30.79,1013.26,2034.00,3251.98,3209.90,3476.18,349.32,314.06,32.48,0000 0000 0000 0000 000000
2013-07-14 00:13:56,0.01,0.39,0.00,30.72,32.93,35.01,5.87,30.88,1013.24,2034.00,3251.96,3209.91,3476.19,350.64,315.22,32.49,0000 0000 0000 0000 000000
2013-07-14 00:14:56,-0.00,0.39,0.00,30.73,32.93,35.01,5.73,30.92,1013.23,2034.00,3251.97,3209.93,3476.22,349.52,314.10,32.49,0000 0000 0000 0000 000000
2013-07-14 00:15:56,-0.01,0.39,0.00,30.73,32.93,34.96,5.88,31.04,1013.22,2034.00,3251.99,3209.92,3476.22,350.00,314.67,32.50,0000 0000 0000 0000 000000
2013-07-14 00:16:57,0.00,0.39,0.00,30.78,32.93,34.98,5.62,30.63,1013.22,2034.00,3251.98,3209.88,3476.15,349.28,313.62,32.51,0000 0000 0000 0000 000000
2013-07-14 00:17:57,0.02,0.39,0.00,30.73,32.94,35.03,5.71,31.00,1013.22,2034.00,3251.98,3209.89,3476.19,349.62,314.65,32.51,0000 0000 0000 0000 000000
2013-07-14 00:18:57,-0.00,0.39,0.00,30.70,32.94,35.03,5.88,31.04,1013.21,2034.00,3251.99,3209.92,3476.27,350.32,314.98,32.52,0000 0000 0000 0000 000000
2013-07-14 00:19:57,-0.02,0.39,0.00,30.71,32.94,35.02,5.88,30.88,1013.23,2034.00,3251.99,3209.94,3476.31,350.57,315.21,32.52,0000 0000 0000 0000 000000
2013-07-14 00:20:57,-0.01,0.39,0.00,30.72,32.94,35.02,5.79,30.75,1013.25,2034.02,3251.99,3209.96,3476.34,349.87,314.57,32.53,0000 0000 0000 0000 000000
2013-07-14 00:21:57,0.01,0.39,0.00,30.73,32.94,35.00,5.83,30.88,1013.24,2034.03,3251.99,3209.96,3476.46,350.03,314.71,32.54,0000 0000 0000 0000 000000
2013-07-14 00:22:58,-0.00,0.39,0.00,30.72,32.95,34.99,5.78,30.92,1013.28,2034.01,3251.99,3209.95,3476.44,349.65,314.18,32.54,0000 0000 0000 0000 000000
2013-07-14 00:23:58,-0.01,0.39,0.00,30.73,32.95,34.99,5.89,30.88,1013.23,2034.00,3251.98,3209.95,3476.32,350.77,315.37,32.55,0000 0000 0000 0000 000000
2013-07-14 00:24:58,0.01,0.39,0.00,30.72,32.95,34.98,5.81,30.75,1013.23,2034.00,3251.99,3209.97,3476.37,350.41,315.01,32.55,0000 0000 0000 0000 000000
2013-07-14 00:25:59,-0.00,0.39,0.00,30.71,32.95,35.03,5.82,30.71,1013.23,2034.00,3251.99,3209.99,3476.44,350.89,315.49,32.56,0000 0000 0000 0000 000000
2013-07-14 00:26:59,-0.01,0.39,0.00,30.72,32.95,35.03,5.92,30.96,1013.22,2034.01,3251.99,3209.97,3476.41,350.26,314.97,32.56,0000 0000 0000 0000 000000
2013-07-14 00:27:59,0.01,0.39,0.00,30.74,32.95,34.98,5.73,30.79,1013.22,2034.01,3251.98,3209.90,3476.25,350.06,314.42,32.57,0000 0000 0000 0000 000000
2013-07-14 00:28:59,0.04,0.39,0.00,30.75,32.95,34.95,5.79,30.71,1013.22,2034.01,3251.99,3209.91,3476.18,350.43,314.86,32.58,0000 0000 0000 0000 000000
2013-07-14 00:29:59,0.01,0.39,0.00,30.77,32.95,34.96,5.68,30.83,1013.21,2034.02,3251.98,3209.94,3476.16,349.47,314.34,32.58,0000 0000 0000 0000 000000
2013-07-14 00:31:00,0.00,0.39,0.00,30.79,32.95,34.94,5.74,30.96,1013.21,2034.03,3251.99,3209.92,3476.10,349.45,314.11,32.59,0000 0000 0000 0000 000000
2013-07-14 00:32:00,0.01,0.39,0.00,30.78,32.95,34.97,5.81,30.88,1013.22,2034.02,3251.98,3209.92,3476.10,349.72,314.37,32.59,0000 0000 0000 0000 000000
2013-07-14 00:33:00,-0.01,0.39,0.00,30.81,32.95,34.95,5.78,31.00,1013.21,2034.00,3251.99,3209.91,3476.10,350.54,315.07,32.60,0000 0000 0000 0000 000000
2013-07-14 00:34:01,-0.01,0.39,0.00,30.83,32.95,34.81,5.77,30.79,1013.23,2034.01,3251.97,3209.83,3476.09,349.65,314.64,32.61,0000 0000 0000 0000 000000
2013-07-14 00:35:01,0.01,0.39,0.00,30.84,32.95,34.82,5.76,31.13,1013.25,2034.00,3251.98,3209.91,3476.14,349.67,314.65,32.61,0000 0000 0000 0000 000000
2013-07-14 00:36:01,-0.01,0.39,0.00,30.82,32.95,34.96,5.64,30.71,1013.22,2034.00,3251.98,3209.91,3476.16,350.09,314.66,32.62,0000 0000 0000 0000 000000
2013-07-14 00:37:01,0.00,0.39,0.00,30.76,32.95,35.01,5.57,30.96,1013.24,2034.00,3251.96,3209.87,3476.15,349.04,313.78,32.62,0000 0000 0000 0000 000000
2013-07-14 00:38:02,0.01,0.39,0.00,30.71,32.95,35.05,5.57,30.96,1013.23,2034.00,3251.97,3209.78,3476.07,348.54,313.37,32.63,0000 0000 0000 0000 000000
2013-07-14 00:39:02,0.03,0.39,0.00,30.71,32.95,35.00,5.67,31.00,1013.22,2034.00,3251.97,3209.66,3476.03,348.71,313.54,32.63,0000 0000 0000 0000 000000
2013-07-14 00:40:02,0.02,0.39,0.00,30.75,32.95,34.93,5.85,30.83,1013.27,2034.01,3251.93,3209.61,3476.01,350.43,315.06,32.64,0000 0000 0000 0000 000000
2013-07-14 00:41:02,0.02,0.39,0.00,30.80,32.95,34.94,5.73,30.96,1013.32,2034.00,3251.91,3209.61,3476.03,350.30,314.71,32.65,0000 0000 0000 0000 000000
2013-07-14 00:42:03,-0.02,0.39,0.00,30.82,32.95,34.99,5.77,30.79,1013.36,2034.00,3251.96,3209.69,3476.04,351.51,315.97,32.65,0000 0000 0000 0000 000000
2013-07-14 00:43:03,-0.02,0.39,0.00,30.80,32.95,34.95,5.73,31.17,1013.38,2034.00,3251.93,3209.59,3476.03,350.09,314.62,32.66,0000 0000 0000 0000 000000
2013-07-14 00:44:03,0.03,0.39,0.00,30.82,32.95,34.95,5.67,31.33,1013.38,2034.00,3251.83,3209.36,3476.02,349.30,314.08,32.66,0000 0000 0000 0000 000000
2013-07-14 00:45:04,0.06,0.39,0.00,30.77,32.96,34.99,5.83,31.25,1013.32,2034.00,3251.69,3209.24,3476.00,349.48,314.31,32.67,0000 0000 0000 0000 000000
2013-07-14 00:46:04,0.02,0.39,0.00,30.78,32.96,34.98,5.63,30.75,1013.28,2034.00,3251.78,3209.36,3476.00,349.96,314.32,32.68,0000 0000 0000 0000 000000
2013-07-14 00:47:04,-0.02,0.39,0.00,30.80,32.97,34.94,5.75,31.29,1013.30,2034.00,3251.86,3209.41,3476.02,349.85,314.81,32.68,0000 0000 0000 0000 000000
2013-07-14 00:48:04,-0.01,0.39,0.00,30.84,32.97,34.82,5.88,31.17,1013.25,2034.00,3251.83,3209.34,3476.00,350.32,314.62,32.69,0000 0000 0000 0000 000000
2013-07-14 00:49:04,0.02,0.39,0.00,30.83,32.97,34.93,5.86,31.04,1013.24,2034.01,3251.79,3209.26,3476.00,349.58,314.20,32.69,0000 0000 0000 0000 000000
2013-07-14 00:50:05,0.02,0.39,0.00,30.86,32.97,34.99,5.88,31.08,1013.24,2034.00,3251.73,3209.19,3476.00,349.46,314.06,32.70,0000 0000 0000 0000 000000
2013-07-14 00:51:05,0.01,0.39,0.00,30.84,32.97,34.98,5.67,30.96,1013.24,2034.00,3251.78,3209.22,3476.00,349.69,314.28,32.70,0000 0000 0000 0000 000000
2013-07-14 00:52:05,-0.00,0.39,0.00,30.80,32.97,34.99,5.75,30.79,1013.22,2034.00,3251.73,3209.16,3476.00,350.05,314.90,32.71,0000 0000 0000 0000 000000
2013-07-14 00:53:06,0.02,0.39,0.00,30.79,32.97,35.01,5.83,31.04,1013.22,2034.00,3251.65,3209.12,3476.00,350.27,314.85,32.72,0000 0000 0000 0000 000000
2013-07-14 00:54:06,0.02,0.39,0.00,30.81,32.97,34.91,5.71,31.00,1013.20,2034.00,3251.40,3209.05,3476.00,349.48,313.89,32.72,0000 0000 0000 0000 000000
2013-07-14 00:55:06,0.04,0.39,0.00,30.83,32.97,34.90,5.73,30.83,1013.21,2034.00,3251.31,3209.04,3476.00,349.87,313.88,32.73,0000 0000 0000 0000 000000
2013-07-14 00:56:06,0.01,0.39,0.00,30.82,32.97,34.93,5.82,30.96,1013.25,2034.00,3251.33,3209.04,3476.00,349.80,314.12,32.73,0000 0000 0000 0000 000000
2013-07-14 00:57:07,0.00,0.39,0.00,30.81,32.97,34.96,5.80,31.17,1013.22,2034.00,3251.27,3209.03,3476.00,349.08,313.76,32.74,0000 0000 0000 0000 000000
2013-07-14 00:58:07,0.00,0.39,0.00,30.78,32.97,35.06,5.73,30.79,1013.24,2034.00,3251.35,3209.03,3476.00,349.76,314.41,32.75,0000 0000 0000 0000 000000
2013-07-14 00:59:07,-0.01,0.39,0.00,30.78,32.97,35.08,5.80,30.96,1013.21,2034.00,3251.27,3209.02,3476.00,349.89,314.53,32.75,0000 0000 0000 0000 000000
2013-07-14 01:00:07,0.00,0.39,0.00,30.79,32.97,35.07,5.79,30.92,1013.21,2034.00,3251.30,3209.02,3476.00,349.83,314.47,32.76,0000 0000 0000 0000 000000
2013-07-14 01:01:07,0.00,0.39,0.00,30.80,32.97,35.05,5.88,31.04,1013.24,2034.00,3251.27,3209.03,3476.00,350.24,314.82,32.76,0000 0000 0000 0000 000000
2013-07-14 01:02:08,-0.00,0.39,0.00,30.81,32.97,34.99,5.68,30.88,1013.23,2034.00,3251.20,3209.02,3476.00,349.10,313.78,32.77,0000 0000 0000 0000 000000
2013-07-14 01:03:08,0.01,0.39,0.00,30.81,32.97,34.99,5.96,31.21,1013.22,2034.00,3251.17,3209.03,3476.00,350.42,315.09,32.78,0000 0000 0000 0000 000000
2013-07-14 01:04:08,0.00,0.39,0.00,30.87,32.97,35.03,5.82,30.92,1013.22,2034.00,3251.21,3209.03,3476.00,349.81,314.36,32.78,0000 0000 0000 0000 000000
2013-07-14 01:05:08,0.00,0.39,0.00,30.88,32.98,35.04,5.81,30.79,1013.21,2034.00,3251.16,3209.02,3476.00,350.45,314.92,32.79,0000 0000 0000 0000 000000
2013-07-14 01:06:09,0.00,0.39,0.00,30.88,32.98,34.99,5.88,30.79,1013.21,2034.00,3251.19,3209.02,3476.00,350.16,314.67,32.79,0000 0000 0000 0000 000000
2013-07-14 01:07:09,0.00,0.39,0.00,30.88,32.99,34.96,5.80,31.00,1013.21,2034.00,3251.18,3209.02,3476.00,350.24,315.14,32.80,0000 0000 0000 0000 000000
2013-07-14 01:08:09,0.00,0.39,0.00,30.90,32.99,34.99,5.64,30.88,1013.22,2034.00,3251.16,3209.00,3476.00,349.45,314.40,32.80,0000 0000 0000 0000 000000
2013-07-14 01:09:10,0.00,0.39,0.00,30.88,33.00,34.96,5.81,30.92,1013.22,2034.00,3251.09,3209.00,3476.00,350.08,314.58,32.81,0000 0000 0000 0000 000000
2013-07-14 01:10:10,0.01,0.39,0.00,30.90,33.00,34.91,5.83,30.88,1013.24,2034.00,3251.06,3209.00,3476.00,349.50,314.06,32.82,0000 0000 0000 0000 000000
2013-07-14 01:11:10,0.00,0.39,0.00,30.91,33.00,34.86,5.59,30.92,1013.25,2034.00,3251.08,3209.00,3476.00,350.41,315.15,32.82,0000 0000 0000 0000 000000
2013-07-14 01:12:11,0.00,0.39,0.00,30.89,33.00,34.69,5.74,30.83,1013.23,2034.00,3251.04,3209.00,3475.99,349.59,314.13,32.83,0000 0000 0000 0000 000000
2013-07-14 01:13:11,0.00,0.39,0.00,30.89,33.00,34.72,5.69,30.88,1013.22,2034.00,3251.03,3209.00,3475.98,350.08,314.57,32.83,0000 0000 0000 0000 000000
2013-07-14 01:14:11,0.00,0.39,0.00,30.93,33.00,34.84,5.78,30.83,1013.20,2034.00,3251.01,3209.00,3475.98,350.13,314.58,32.84,0000 0000 0000 0000 000000
2013-07-14 01:15:11,0.00,0.39,0.00,30.92,33.00,34.95,5.91,31.08,1013.20,2034.00,3251.02,3209.00,3475.97,350.56,314.99,32.85,0000 0000 0000 0000 000000
2013-07-14 01:16:12,0.00,0.39,0.00,30.92,33.00,34.99,5.68,30.96,1013.21,2034.00,3251.04,3209.00,3475.96,348.46,313.09,32.85,0000 0000 0000 0000 000000
2013-07-14 01:17:12,0.00,0.39,0.00,30.88,33.00,35.04,5.82,30.83,1013.21,2034.00,3251.03,3209.00,3475.96,350.15,314.85,32.86,0000 0000 0000 0000 000000
2013-07-14 01:18:12,0.00,0.39,0.00,30.90,33.00,35.07,5.73,30.88,1013.20,2034.00,3251.03,3209.01,3475.96,350.01,314.50,32.86,0000 0000 0000 0000 000000
2013-07-14 01:19:13,0.00,0.39,0.00,30.85,33.00,34.91,5.85,30.71,1013.20,2034.00,3251.03,3209.00,3475.96,350.33,314.84,32.87,0000 0000 0000 0000 000000
2013-07-14 01:20:13,0.00,0.39,0.00,30.82,33.00,34.68,5.74,30.58,1013.20,2034.00,3251.01,3209.00,3475.96,350.44,315.16,32.87,0000 0000 0000 0000 000000
2013-07-14 01:21:13,0.00,0.39,0.00,30.82,33.00,34.67,5.83,30.79,1013.21,2034.00,3251.00,3209.00,3475.95,350.41,314.77,32.88,0000 0000 0000 0000 000000
2013-07-14 01:22:13,0.00,0.39,0.00,30.82,33.00,34.81,5.73,30.88,1013.20,2034.00,3251.00,3209.00,3475.93,349.99,314.84,32.89,0000 0000 0000 0000 000000
2013-07-14 01:23:13,0.00,0.39,0.00,30.83,33.01,34.87,5.82,30.88,1013.20,2034.00,3251.02,3209.00,3475.94,350.74,315.22,32.89,0000 0000 0000 0000 000000
2013-07-14 01:24:14,0.00,0.39,0.00,30.88,33.02,34.87,5.73,30.79,1013.20,2034.00,3251.01,3209.00,3475.92,350.53,314.99,32.90,0000 0000 0000 0000 000000
2013-07-14 01:25:14,0.00,0.39,0.00,30.92,33.02,34.77,5.76,30.83,1013.20,2034.00,3251.01,3209.00,3475.92,350.02,314.73,32.90,0000 0000 0000 0000 000000
2013-07-14 01:26:14,0.00,0.39,0.00,30.92,33.02,34.62,5.81,30.88,1013.20,2034.00,3251.01,3209.00,3475.91,350.37,314.36,32.91,0000 0000 0000 0000 000000
2013-07-14 01:27:14,0.00,0.39,0.00,30.93,33.02,34.72,5.70,30.67,1013.20,2034.00,3251.02,3209.00,3475.88,349.58,313.77,32.92,0000 0000 0000 0000 000000
2013-07-14 01:28:15,0.00,0.39,0.00,30.94,33.02,34.73,5.69,30.71,1013.20,2034.00,3251.00,3209.00,3475.80,349.85,314.31,32.92,0000 0000 0000 0000 000000
2013-07-14 01:29:15,0.01,0.39,0.00,30.91,33.02,34.75,5.76,30.67,1013.20,2034.00,3251.00,3209.00,3475.67,350.09,314.56,32.93,0000 0000 0000 0000 000000
2013-07-14 01:30:15,0.01,0.39,0.00,30.95,33.02,34.67,5.71,30.75,1013.20,2033.99,3251.00,3208.99,3475.52,349.40,313.90,32.93,0000 0000 0000 0000 000000
2013-07-14 01:31:15,0.02,0.39,0.00,30.94,33.02,34.83,5.87,30.92,1013.20,2033.99,3251.00,3208.98,3475.43,350.69,315.06,32.94,0000 0000 0000 0000 000000
2013-07-14 01:32:16,0.01,0.39,0.00,30.93,33.02,34.91,5.60,30.79,1013.20,2033.99,3251.00,3208.98,3475.39,348.68,313.27,32.94,0000 0000 0000 0000 000000
2013-07-14 01:33:16,0.01,0.39,0.00,30.89,33.02,34.87,5.79,30.92,1013.20,2033.99,3251.00,3208.98,3475.23,349.67,314.35,32.95,0000 0000 0000 0000 000000
2013-07-14 01:34:16,0.01,0.39,0.00,30.84,33.02,34.88,5.90,30.79,1013.20,2033.99,3251.00,3208.98,3475.15,350.88,315.17,32.96,0000 0000 0000 0000 000000
2013-07-14 01:35:17,0.01,0.39,0.00,30.85,33.03,34.67,5.77,31.04,1013.20,2033.99,3251.00,3208.93,3475.09,350.14,314.67,32.96,0000 0000 0000 0000 000000
2013-07-14 01:36:17,0.01,0.39,0.00,30.85,33.03,34.66,5.76,30.79,1013.20,2033.98,3251.00,3208.91,3475.05,350.32,314.82,32.97,0000 0000 0000 0000 000000
2013-07-14 01:37:17,-0.00,0.39,0.00,30.85,33.04,34.82,5.82,30.88,1013.20,2033.95,3251.00,3208.89,3475.04,350.55,314.42,32.97,0000 0000 0000 0000 000000
2013-07-14 01:38:17,-0.00,0.39,0.00,30.85,33.04,34.69,5.83,30.79,1013.20,2033.98,3251.00,3208.86,3475.06,350.34,314.85,32.98,0000 0000 0000 0000 000000
2013-07-14 01:39:17,0.01,0.39,0.00,30.88,33.05,34.59,5.74,30.83,1013.20,2033.98,3251.00,3208.82,3475.05,350.58,315.17,32.99,0000 0000 0000 0000 000000
2013-07-14 01:40:18,0.02,0.39,0.00,30.93,33.05,34.70,5.77,30.88,1013.20,2033.97,3250.98,3208.68,3475.03,349.40,313.92,32.99,0000 0000 0000 0000 000000
2013-07-14 01:41:18,0.03,0.39,0.00,31.00,33.05,34.71,5.79,30.88,1013.20,2033.97,3250.90,3208.50,3475.01,350.00,314.39,33.00,0000 0000 0000 0000 000000
2013-07-14 01:42:18,0.04,0.40,0.00,30.97,33.05,34.76,5.76,31.38,1013.20,2033.96,3250.74,3208.27,3475.00,349.93,314.34,33.00,0000 0000 0000 0000 000000
2013-07-14 01:43:18,0.05,0.40,0.00,30.93,33.05,34.74,5.77,30.92,1013.20,2033.91,3250.60,3208.12,3475.00,349.78,314.18,33.01,0000 0000 0000 0000 000000
2013-07-14 01:44:19,0.02,0.40,0.00,30.90,33.05,34.62,5.90,31.13,1013.20,2033.92,3250.68,3208.06,3475.00,350.68,315.10,33.02,0000 0000 0000 0000 000000
2013-07-14 01:45:19,0.01,0.40,0.00,30.89,33.05,34.54,5.71,30.79,1013.20,2033.92,3250.78,3208.07,3475.00,350.74,315.32,33.02,0000 0000 0000 0000 000000
2013-07-14 01:46:19,-0.02,0.40,0.00,30.91,33.05,34.59,5.71,30.67,1013.20,2033.90,3250.83,3208.12,3475.00,349.51,313.76,33.03,0000 0000 0000 0000 000000
2013-07-14 01:47:20,-0.04,0.40,0.00,30.92,33.05,34.71,5.78,31.08,1013.20,2033.90,3250.76,3208.16,3475.00,350.43,314.82,33.03,0000 0000 0000 0000 000000
2013-07-14 01:48:20,-0.02,0.40,0.00,30.94,33.05,34.74,5.88,30.92,1013.20,2033.84,3250.72,3208.11,3475.00,350.36,314.77,33.04,0000 0000 0000 0000 000000
2013-07-14 01:49:20,0.00,0.40,0.00,30.97,33.06,34.73,5.86,31.25,1013.20,2033.87,3250.74,3208.07,3475.00,350.90,315.22,33.04,0000 0000 0000 0000 000000
2013-07-14 01:50:20,0.03,0.40,0.00,31.00,33.07,34.72,5.67,30.63,1013.20,2033.83,3250.66,3208.05,3475.00,351.09,315.36,33.05,0000 0000 0000 0000 000000
2013-07-14 01:51:20,0.01,0.40,0.00,31.02,33.07,34.71,5.75,30.79,1013.19,2033.84,3250.63,3208.06,3475.00,350.11,314.46,33.06,0000 0000 0000 0000 000000
2013-07-14 01:52:21,-0.00,0.40,0.00,31.04,33.07,34.79,5.73,30.83,1013.20,2033.88,3250.60,3208.07,3475.00,349.54,314.01,33.06,0000 0000 0000 0000 000000
2013-07-14 01:53:21,0.00,0.40,0.00,31.06,33.07,34.76,5.67,30.67,1013.20,2033.84,3250.50,3208.06,3475.00,349.69,314.27,33.07,0000 0000 0000 0000 000000
2013-07-14 01:54:21,0.01,0.40,0.00,31.03,33.07,34.76,5.75,31.29,1013.19,2033.88,3250.48,3208.04,3475.00,348.85,313.51,33.07,0000 0000 0000 0000 000000
2013-07-14 01:55:22,0.01,0.40,0.00,31.06,33.07,34.65,5.77,30.75,1013.20,2033.86,3250.40,3208.04,3475.00,350.63,314.69,33.08,0000 0000 0000 0000 000000
2013-07-14 01:56:22,-0.00,0.40,0.00,31.07,33.07,34.82,5.87,30.79,1013.19,2033.90,3250.49,3208.06,3475.00,350.36,314.52,33.09,0000 0000 0000 0000 000000
2013-07-14 01:57:22,0.02,0.40,0.00,31.07,33.07,34.74,5.93,30.83,1013.20,2033.88,3250.42,3208.05,3475.00,349.93,314.28,33.09,0000 0000 0000 0000 000000
2013-07-14 01:58:22,-0.03,0.40,0.00,31.03,33.07,34.74,5.80,30.75,1013.20,2033.81,3250.38,3208.04,3474.99,350.08,314.42,33.10,0000 0000 0000 0000 000000
2013-07-14 01:59:23,-0.01,0.40,0.00,30.99,33.07,34.67,5.90,30.79,1013.20,2033.88,3250.40,3208.03,3474.99,350.32,314.60,33.10,0000 0000 0000 0000 000000
2013-07-14 02:00:23,0.04,0.40,0.00,30.99,33.08,34.81,5.75,30.88,1013.20,2033.89,3250.30,3208.04,3474.99,349.31,313.96,33.11,0000 0000 0000 0000 000000
2013-07-14 02:01:23,0.01,0.40,0.00,31.01,33.09,34.82,5.86,31.00,1013.17,2033.86,3250.20,3208.03,3474.98,349.63,313.75,33.11,0000 0000 0000 0000 000000
2013-07-14 02:02:24,0.01,0.40,0.00,31.06,33.10,34.70,5.65,30.71,1013.19,2033.89,3250.26,3208.02,3474.97,350.30,314.59,33.12,0000 0000 0000 0000 000000
2013-07-14 02:03:24,-0.01,0.40,0.00,31.09,33.10,34.84,5.78,30.71,1013.20,2033.89,3250.29,3208.03,3474.98,350.11,313.79,33.13,0000 0000 0000 0000 000000
2013-07-14 02:04:24,0.01,0.40,0.00,31.07,33.10,34.87,5.86,30.88,1013.18,2033.94,3250.35,3208.04,3474.99,350.49,314.48,33.13,0000 0000 0000 0000 000000
2013-07-14 02:05:24,0.03,0.40,0.00,31.09,33.10,34.94,5.69,30.88,1013.18,2033.94,3250.31,3208.02,3474.99,349.70,314.02,33.14,0000 0000 0000 0000 000000
2013-07-14 02:06:25,-0.01,0.40,0.00,31.14,33.10,34.90,5.70,31.04,1013.20,2033.89,3250.30,3208.01,3474.99,350.58,314.76,33.14,0000 0000 0000 0000 000000
2013-07-14 02:07:25,-0.02,0.40,0.00,31.15,33.10,34.74,5.70,30.67,1013.20,2033.90,3250.17,3208.00,3474.97,349.74,313.99,33.15,0000 0000 0000 0000 000000
2013-07-14 02:08:25,0.03,0.40,0.00,31.16,33.10,34.81,5.66,30.83,1013.20,2033.91,3250.11,3208.00,3474.97,349.98,314.20,33.16,0000 0000 0000 0000 000000
2013-07-14 02:09:26,0.00,0.40,0.00,31.15,33.10,34.87,5.77,30.75,1013.20,2033.87,3250.11,3208.00,3474.91,349.82,314.06,33.16,0000 0000 0000 0000 000000
2013-07-14 02:10:26,-0.01,0.40,0.00,31.08,33.10,34.75,5.76,31.08,1013.20,2033.85,3250.07,3208.00,3474.89,349.61,314.18,33.17,0000 0000 0000 0000 000000
2013-07-14 02:11:26,-0.03,0.40,0.00,31.11,33.10,34.88,5.81,30.83,1013.20,2033.80,3250.06,3208.00,3474.93,350.42,314.66,33.17,0000 0000 0000 0000 000000
2013-07-14 02:12:26,0.01,0.40,0.00,31.08,33.11,34.76,5.63,30.63,1013.20,2033.82,3250.05,3208.00,3474.84,350.56,314.64,33.18,0000 0000 0000 0000 000000
2013-07-14 02:13:27,0.01,0.40,0.00,31.05,33.12,34.66,5.82,30.88,1013.20,2033.83,3250.03,3208.00,3474.85,350.66,314.99,33.19,0000 0000 0000 0000 000000
2013-07-14 02:14:27,-0.02,0.40,0.00,31.05,33.12,34.59,5.73,31.17,1013.20,2033.76,3250.02,3208.00,3474.74,349.44,313.83,33.19,0000 0000 0000 0000 000000
2013-07-14 02:15:27,-0.00,0.40,0.00,31.04,33.12,34.66,5.70,30.79,1013.20,2033.68,3250.01,3208.00,3474.73,349.79,314.15,33.20,0000 0000 0000 0000 000000
2013-07-14 02:16:27,-0.01,0.40,0.00,31.07,33.12,34.82,5.70,30.79,1013.20,2033.75,3250.02,3208.00,3474.72,349.79,314.32,33.20,0000 0000 0000 0000 000000
2013-07-14 02:17:27,0.01,0.40,0.00,31.13,33.12,34.82,5.75,30.71,1013.18,2033.68,3250.01,3208.00,3474.55,349.13,313.47,33.21,0000 0000 0000 0000 000000
2013-07-14 02:18:28,-0.02,0.40,0.00,31.15,33.12,34.84,5.68,30.71,1013.20,2033.60,3250.00,3207.99,3474.30,349.75,314.01,33.21,0000 0000 0000 0000 000000
2013-07-14 02:19:28,-0.06,0.40,0.00,31.15,33.12,34.78,5.62,30.83,1013.19,2033.59,3249.99,3207.88,3474.14,349.32,313.95,33.22,0000 0000 0000 0000 000000
2013-07-14 02:20:28,0.08,0.40,0.00,31.13,33.13,34.84,5.77,30.75,1013.20,2033.66,3249.99,3207.82,3474.06,350.11,314.21,33.23,0000 0000 0000 0000 000000
2013-07-14 02:21:28,0.05,0.40,0.00,31.08,33.13,34.90,5.68,31.04,1013.19,2033.60,3249.99,3207.68,3474.02,349.69,313.90,33.23,0000 0000 0000 0000 000000
2013-07-14 02:22:29,-0.03,0.40,0.00,31.05,33.14,34.79,5.71,30.83,1013.18,2033.48,3249.96,3207.64,3474.00,349.90,314.29,33.24,0000 0000 0000 0000 000000
2013-07-14 02:23:29,-0.03,0.40,0.00,31.06,33.15,34.90,5.88,30.79,1013.20,2033.37,3249.94,3207.44,3474.00,350.57,314.13,33.24,0000 0000 0000 0000 000000
2013-07-14 02:24:29,-0.05,0.40,0.00,31.10,33.15,34.78,5.88,30.67,1013.19,2033.36,3249.95,3207.43,3474.00,349.55,314.01,33.25,0000 0000 0000 0000 000000
2013-07-14 02:25:30,0.02,0.40,0.00,31.13,33.15,34.88,5.83,31.17,1013.19,2033.45,3249.95,3207.42,3474.00,350.13,314.15,33.26,0000 0000 0000 0000 000000
2013-07-14 02:26:30,0.03,0.40,0.00,31.13,33.15,34.89,5.82,30.83,1013.19,2033.39,3249.92,3207.28,3474.00,350.39,314.60,33.26,0000 0000 0000 0000 000000
2013-07-14 02:27:30,-0.02,0.40,0.00,31.10,33.15,34.83,5.76,30.79,1013.18,2033.33,3249.91,3207.26,3474.00,349.81,313.76,33.27,0000 0000 0000 0000 000000
2013-07-14 02:28:30,-0.04,0.40,0.00,31.15,33.15,34.89,5.78,31.00,1013.19,2033.23,3249.86,3207.17,3474.00,349.82,314.06,33.27,0000 0000 0000 0000 000000
2013-07-14 02:29:31,-0.01,0.40,0.00,31.20,33.15,34.85,5.84,30.54,1013.19,2033.19,3249.90,3207.11,3473.99,350.71,314.72,33.28,0000 0000 0000 0000 000000
2013-07-14 02:30:31,-0.04,0.39,0.00,31.23,33.15,34.84,5.74,30.79,1013.18,2033.18,3249.87,3207.13,3473.99,349.90,313.97,33.28,0000 0000 0000 0000 000000
2013-07-14 02:31:31,0.02,0.40,0.00,31.23,33.16,34.98,5.63,30.63,1013.17,2033.24,3249.90,3207.11,3473.99,349.37,313.44,33.29,0000 0000 0000 0000 000000
2013-07-14 02:32:31,0.02,0.40,0.00,31.24,33.17,34.91,5.78,30.79,1013.19,2033.20,3249.89,3207.05,3473.99,350.30,314.47,33.30,0000 0000 0000 0000 000000
2013-07-14 02:33:32,0.00,0.40,0.00,31.18,33.17,34.77,5.56,30.63,1013.18,2033.13,3249.79,3207.03,3473.97,349.03,313.70,33.30,0000 0000 0000 0000 000000
2013-07-14 02:34:32,-0.05,0.39,0.00,31.15,33.17,34.75,5.57,30.67,1013.20,2033.13,3249.66,3207.04,3473.95,349.16,313.16,33.31,0000 0000 0000 0000 000000
2013-07-14 02:35:32,0.01,0.40,0.00,31.22,33.17,34.90,5.63,30.58,1013.19,2033.10,3249.63,3207.04,3473.95,349.97,314.13,33.31,0000 0000 0000 0000 000000
2013-07-14 02:36:33,-0.02,0.39,0.00,31.25,33.18,34.84,5.77,30.58,1013.19,2033.07,3249.40,3207.02,3473.91,349.75,313.91,33.32,0000 0000 0000 0000 000000